Flag for Germany Weather past 2 weeks in Viersen, North Rhine-Westphalia, Germany

Now
52 °F

Clear.


Feels Like: 52 °F
Forecast: 40 / 64 °F
Wind: 2 mph from North

Location: Monchengladbach Airport


UV Index: 3 (Moderate)

Visibility: 10 mi


Pressure: 30.33 "Hg

Humidity: 54%

Dew point: 36 °F

Location of ViersenLocation

Historic Weather in Viersen

°F

Viersen temperature yesterday

Maximum temperature yesterday: 52 °F (at 4:50 PM)
Minimum temperature yesterday: 41 °F (at 7:50 AM)
Average temperature yesterday: 47 °F

Past Weeks' High & Low Weather Summary

 TemperatureHumidityPressure
High72 °F (Apr 2, 4:50 PM)100% (Apr 2, 7:50 AM)30.45 "Hg (Apr 2, 7:50 AM)
Low32 °F (Apr 16, 7:50 AM)31% (Apr 12, 4:20 PM)29.59 "Hg (Apr 3, 1:50 PM)
Average56 °F68%30.03 "Hg
* Reported Apr 1 8:20 PM — Apr 16 8:20 PM, Viersen, Weather by CustomWeather, © 2014

Note: Actual official high and low records may vary slightly from our data, if they occured in-between our weather recording intervals... More about our weather records

Advertising

Historic Weather Conditions — Data for Previous 24 hours

 ConditionsComfort  
Time TempWeatherWind HumidityBarometerVisibility
8:20 PM
Apr 16
52 °FClear.2 mph54%30.33 "Hg10 mi
7:50 PM57 °FClear.2 mph44%30.33 "Hg10 mi
7:20 PM57 °FClear.3 mph36%30.33 "Hg10 mi
6:50 PM59 °FClear.2 mph31%30.33 "Hg10 mi
6:20 PM59 °FClear.5 mph31%30.36 "Hg10 mi
5:50 PM59 °FClear.3 mph31%30.36 "Hg10 mi
5:20 PM59 °FClear.2 mph31%30.36 "Hg10 mi
4:50 PM57 °FClear.3 mph33%30.36 "Hg10 mi
4:20 PM57 °FClear.3 mph33%30.36 "Hg10 mi
3:50 PM57 °FPassing clouds.7 mph33%30.39 "HgN/A
3:20 PM57 °FClear.5 mph36%30.39 "Hg10 mi
2:50 PM57 °FClear.5 mph36%30.39 "Hg10 mi
2:20 PM55 °FClear.3 mph36%30.42 "Hg10 mi
1:50 PM55 °FClear.6 mph38%30.42 "Hg10 mi
1:20 PM54 °FClear.7 mph38%30.42 "Hg10 mi
12:50 PM54 °FPassing clouds.5 mph44%30.42 "HgN/A
12:20 PM52 °FSunny.6 mph50%30.42 "Hg10 mi
11:50 AM50 °FPassing clouds.7 mph58%30.45 "HgN/A
11:20 AM50 °FPassing clouds.7 mph62%30.45 "HgN/A
10:50 AM48 °FSunny.7 mph62%30.45 "Hg10 mi
10:20 AM48 °FPassing clouds.5 mph71%30.45 "HgN/A
9:50 AM46 °FPassing clouds.6 mph76%30.45 "HgN/A
9:20 AM45 °FSunny.5 mph87%30.45 "Hg10 mi
8:50 AM41 °FSunny.5 mph100%30.45 "Hg10 mi
8:20 AM39 °FSunny.1 mph100%30.42 "Hg10 mi
7:50 AM32 °FSunny.No wind100%30.42 "Hg10 mi
Weather by CustomWeather, © 2014

See weather overview